CZ-6A DEB

Satellite information

Favourite Embed

Satellite Type and Status

DEBRISIN ORBIT

Key statistics

Satellite CZ-6A DEB at a glance.

Uptime

970

Days in orbit

Revolutions

≈ 14.6

Per day

Orbit

SSO

Sun Synchronous Orbit

Inclination

98.7

Latest

Satellite identification and parameters

Extended collection of information and parameters for CZ-6A DEB.

Object identification

Identified? True

Debris? True

Object name: CZ-6A DEB

International designator: 2022-151YH

Object number (NORAD): 55535

Object ID (CCSDS): 55535

Country: PEOPLES REPUBLIC OF CHINA (PRC)

Current information (Y/N): Y

RCS size: SMALL

Orbital parameters

Period: 98.421 minutes

Inclination: 98.653 deg

SMA: 7061.307 km

Apoapsis: 742.132 km

Periapsis: 624.212 km

RAAN: 233.9237 deg

Eccentricy: 0.0083497

Argument of periapsis: 267.6934 deg

Mean anomaly: 91.4704 deg

Mean motion: 14.63103769 rev/day

Mean motion (dot): 0.0000585 rev/day2

B* drag term: 0.0010929 1/REarth

Two-line elements (TLE)

Creation date: July 8, 2025, 2:27 a.m.

Reference frame: TEME

Reference center: EARTH

Epoch: July 7, 2025, 4:22 p.m. UTC

TLE line 0: 0 CZ-6A DEB

TLE line 1: 1 55535U 22151YH 25188.68228072 .00005850 00000-0 10929-2 0 9994

TLE line 2: 2 55535 98.6530 233.9237 0083497 267.6934 91.4704 14.63103769134635

Live tracking on map

Real-time ground track for satellite CZ-6A DEB.

In-orbit conjunctions

A list of the most updated potential collisions computed for object CZ-6A DEB.

Target Orbit TCA Probability of collision Miss distance Type
TITAN 3C TRANSTAGE DEB LEO 2025-01-08 00:21:36 0.0001233979 250.0 (m) DEBRIS
COSMOS 1275 DEB LEO 2024-08-31 08:58:56 0.0001027795 113.0 (m) DEBRIS

Associated space launch

Chinese satellite reported for atmospheric/ocean/environmental/spatial parameter research purposes, details TBD.

CZ-6A DEB was lifted into orbit during the mission ‘Long March 6A | Yunhai 3’, on board a Long March 6A space rocket.

The launch took place on Nov. 11, 2022, 10:52 p.m. from Launch Complex 9A.

For more information about the launch, click the button.

Launch to space Long March 6A | Yunhai 3
Long March 6A | Yunhai 3

Agency: N/A

Status: Launch Successful

Launch date: Nov. 11, 2022, 10:52 p.m. UTC

Rocket: Long March 6A

Launch pad: Launch Complex 9A

Location: Taiyuan Satellite Launch Center, People's Republic of China

...

Latest news about this satellite

There are no fresh news available about this satellite. Check back as we update our databases every day.


Newsletter sign-up

Weekly statistics, charts and insights to help you stay on top of the space industry.